SV7JLF-3 Weather Reports


time (UTC)temp
C
wind
direction
speed
KPH
gust
KPH
rain 1hr
cm
rain 24hr
cm
rain mn
cm
humidity
%
barometer
mb
20260504021602 6 235 9.7 0.0 0.00 0.00 0.00 70 1019.8
20260504021535 6 225 9.7 0.0 0.00 0.00 0.00 70 1019.8
20260504021033 6 234 11.3 0.0 0.00 0.00 0.00 70 1019.8
20260504021005 6 225 11.3 16.1 0.00 0.00 0.00 70 1019.6
20260504020547 6 217 11.3 0.0 0.00 0.00 0.00 70 1019.8
20260504020110 6 227 9.7 0.0 0.00 0.00 0.00 70 1019.9
20260504020036 6 219 9.7 0.0 0.00 0.00 0.00 70 1019.9
20260504015552 6 225 9.7 0.0 0.00 0.00 0.00 71 1019.8
20260504015041 6 215 9.7 0.0 0.00 0.00 0.00 71 1019.9
20260504015005 6 225 9.7 12.9 0.00 0.00 0.00 71 1019.6
20260504014559 6 236 8.0 0.0 0.00 0.00 0.00 71 1019.9
20260504014531 6 225 8.0 0.0 0.00 0.00 0.00 71 1019.8
20260504014025 6 222 8.0 0.0 0.00 0.00 0.00 71 1019.9
20260504014005 6 226 8.0 11.3 0.00 0.00 0.00 71 1019.7
20260504013540 6 229 8.0 0.0 0.00 0.00 0.00 72 1019.8
20260504013049 5 237 8.0 0.0 0.00 0.00 0.00 72 1019.9
20260504013028 6 232 8.0 0.0 0.00 0.00 0.00 72 1019.9
20260504013005 6 234 8.0 12.9 0.00 0.00 0.00 72 1019.7
20260504012521 6 233 8.0 0.0 0.00 0.00 0.00 72 1019.8
20260504012038 6 244 8.0 0.0 0.00 0.00 0.00 72 1019.8
20260504012005 6 243 8.0 12.9 0.00 0.00 0.00 73 1019.4
20260504011555 5 225 8.0 0.0 0.00 0.00 0.00 73 1019.8
20260504011528 6 237 8.0 0.0 0.00 0.00 0.00 73 1019.8
20260504011109 6 239 8.0 0.0 0.00 0.00 0.00 73 1019.7
20260504011005 5 238 8.0 11.3 0.00 0.00 0.00 73 1019.5
20260504010538 5 228 8.0 0.0 0.00 0.00 0.00 73 1019.7
20260504010033 5 228 6.4 0.0 0.00 0.00 0.00 74 1019.7
20260504010009 5 236 6.4 0.0 0.00 0.00 0.00 74 1019.7
20260504010005 5 232 4.8 9.7 0.00 0.00 0.00 73 1019.4
20260504005537 5 221 6.4 0.0 0.00 0.00 0.00 73 1019.6
20260504005033 5 202 4.8 0.0 0.00 0.00 0.00 73 1019.6
20260504005005 5 201 4.8 8.0 0.00 0.00 0.00 73 1019.5
20260504004543 6 151 4.8 0.0 0.00 0.00 0.00 73 1019.6
20260504004517 5 146 4.8 0.0 0.00 0.00 0.00 73 1019.6
20260504004034 6 222 6.4 0.0 0.00 0.00 0.00 72 1019.7
20260504004004 6 222 3.2 9.7 0.00 0.00 0.00 72 1019.2
20260504003525 6 229 6.4 0.0 0.00 0.00 0.00 72 1019.7
20260504003040 6 234 3.2 0.0 0.00 0.00 0.00 72 1019.7
20260504003019 6 231 3.2 0.0 0.00 0.00 0.00 72 1019.7
20260504003005 6 243 4.8 4.8 0.00 0.00 0.00 72 1019.4
20260504002551 6 229 3.2 0.0 0.00 0.00 0.00 72 1019.7
20260504002026 6 229 4.8 0.0 0.00 0.00 0.00 71 1019.8
20260504002005 6 229 4.8 4.8 0.00 0.00 0.00 71 1019.5
20260504001543 6 229 4.8 0.0 0.00 0.00 0.00 70 1019.6
20260504001505 6 229 4.8 0.0 0.00 0.00 0.00 70 1019.7
20260504001031 6 320 6.4 0.0 0.00 0.00 0.00 70 1019.7
20260504001005 6 355 4.8 11.3 0.00 0.00 0.00 70 1019.4
20260504000527 6 202 8.0 0.0 0.00 0.00 0.00 69 1019.7
20260504000042 6 224 11.3 0.0 0.00 0.00 0.00 70 1019.7
20260504000012 6 212 11.3 0.0 0.00 0.00 0.00 70 1019.7
20260504000004 6 209 9.7 19.3 0.00 0.00 0.00 70 1019.2
20260503235556 6 227 11.3 0.0 0.00 0.00 0.00 70 1019.5
20260503235025 6 221 9.7 0.0 0.00 0.00 0.00 70 1019.6
20260503235004 6 226 11.3 16.1 0.00 0.00 0.00 70 1019.2
20260503234626 6 225 9.7 0.0 0.00 0.00 0.00 71 1019.5
20260503234559 6 229 9.7 0.0 0.00 0.00 0.00 71 1019.6
20260503234031 6 238 8.0 0.0 0.00 0.00 0.00 72 1019.5
20260503234005 6 224 9.7 14.5 0.00 0.00 0.00 72 1019.3
20260503233523 6 195 9.7 0.0 0.00 0.00 0.00 72 1019.5
20260503233109 6 229 9.7 0.0 0.00 0.00 0.00 72 1019.7
20260503233040 6 232 9.7 0.0 0.00 0.00 0.00 72 1019.6
20260503233005 6 236 8.0 14.5 0.00 0.00 0.00 72 1019.3
20260503232538 6 241 8.0 0.0 0.00 0.00 0.00 72 1019.6
20260503232025 6 257 8.0 0.0 0.00 0.00 0.00 71 1019.6
20260503232005 6 251 8.0 12.9 0.00 0.00 0.00 71 1019.3
20260503231617 6 277 8.0 0.0 0.00 0.00 0.00 70 1019.7
20260503231541 6 267 8.0 0.0 0.00 0.00 0.00 70 1019.6
20260503231059 7 288 8.0 0.0 0.00 0.00 0.00 69 1019.5
20260503231004 7 272 6.4 16.1 0.00 0.00 0.00 69 1019.2
20260503230558 7 294 9.7 0.0 0.00 0.00 0.00 68 1019.4
20260503230047 7 306 9.7 0.0 0.00 0.00 0.00 69 1019.6
20260503230017 6 293 9.7 0.0 0.00 0.00 0.00 69 1019.5
20260503225533 7 207 9.7 0.0 0.00 0.00 0.00 68 1019.5
20260503225029 7 200 11.3 0.0 0.00 0.00 0.00 68 1019.5
20260503225005 7 209 9.7 14.5 0.00 0.00 0.00 68 1019.2
20260503224538 7 199 9.7 0.0 0.00 0.00 0.00 68 1019.4
20260503224518 6 208 9.7 0.0 0.00 0.00 0.00 68 1019.5
20260503224029 7 211 8.0 0.0 0.00 0.00 0.00 68 1019.4
20260503224005 7 204 9.7 12.9 0.00 0.00 0.00 68 1019.2
20260503223539 7 211 6.4 0.0 0.00 0.00 0.00 68 1019.6
20260503223057 7 234 6.4 0.0 0.00 0.00 0.00 68 1019.6
20260503223007 7 232 6.4 0.0 0.00 0.00 0.00 68 1019.5
20260503223005 7 233 4.8 12.9 0.00 0.00 0.00 68 1019.3
20260503222526 7 232 6.4 0.0 0.00 0.00 0.00 68 1019.6
20260503222041 7 223 8.0 0.0 0.00 0.00 0.00 68 1019.7
20260503222006 7 227 4.8 14.5 0.00 0.00 0.00 68 1019.4
20260503221536 7 224 8.0 0.0 0.00 0.00 0.00 69 1019.5
20260503221512 6 223 8.0 0.0 0.00 0.00 0.00 69 1019.6
20260503221042 7 217 6.4 0.0 0.00 0.00 0.00 70 1019.5
20260503221005 7 216 6.4 9.7 0.00 0.00 0.00 70 1019.2
20260503220538 7 207 6.4 0.0 0.00 0.00 0.00 70 1019.5
20260503220048 7 206 4.8 0.0 0.00 0.00 0.00 70 1019.6
20260503220008 7 207 4.8 0.0 0.00 0.00 0.00 70 1019.7
20260503215939 7 208 6.4 8.0 0.00 0.00 0.00 70 1019.2
20260503215522 7 223 3.2 0.0 0.00 0.00 0.00 70 1019.5
20260503215015 7 275 3.2 0.0 0.00 0.00 0.00 70 1019.4
20260503214937 7 275 1.6 9.7 0.00 0.00 0.00 70 1019.1
20260503214631 7 275 4.8 0.0 0.00 0.00 0.00 69 1019.5
20260503214532 7 275 4.8 0.0 0.00 0.00 0.00 69 1019.5
20260503213959 8 277 6.4 0.0 0.00 0.00 0.00 68 1019.5
20260503213938 8 278 6.4 16.1 0.00 0.00 0.00 68 1019.1
20260503213513 8 297 9.7 0.0 0.00 0.00 0.00 67 1019.4
20260503213112 8 290 9.7 0.0 0.00 0.00 0.00 65 1019.4
20260503213009 8 297 8.0 0.0 0.00 0.00 0.00 65 1019.2
20260503212937 8 289 11.3 16.1 0.00 0.00 0.00 65 1019.0
20260503212513 8 308 4.8 0.0 0.00 0.00 0.00 64 1019.4
20260503212009 8 211 4.8 0.0 0.00 0.00 0.00 60 1019.4
20260503211513 8 162 6.4 0.0 0.00 0.00 0.00 60 1019.2
20260503211458 9 176 6.4 0.0 0.00 0.00 0.00 60 1019.2
20260503211013 9 162 6.4 0.0 0.00 0.00 0.00 59 1019.3
20260503210937 9 161 4.8 9.7 0.00 0.00 0.00 59 1018.9
20260503210510 9 171 8.0 0.0 0.00 0.00 0.00 59 1019.3
20260503210019 8 171 6.4 0.0 0.00 0.00 0.00 59 1019.2
20260503210000 9 167 6.4 0.0 0.00 0.00 0.00 59 1019.2
20260503205512 9 163 6.4 0.0 0.00 0.00 0.00 59 1019.1
20260503205029 9 164 6.4 0.0 0.00 0.00 0.00 59 1019.1
20260503204938 9 161 8.0 11.3 0.00 0.00 0.00 59 1018.8
20260503204604 9 155 6.4 0.0 0.00 0.00 0.00 58 1019.2
20260503204503 9 157 6.4 0.0 0.00 0.00 0.00 58 1019.2
20260503204019 9 146 4.8 0.0 0.00 0.00 0.00 59 1019.3
20260503203511 10 136 6.4 0.0 0.00 0.00 0.00 59 1019.4
20260503203109 9 148 6.4 0.0 0.00 0.00 0.00 58 1019.4
20260503203007 10 154 6.4 0.0 0.00 0.00 0.00 58 1019.3
20260503202937 10 156 8.0 9.7 0.00 0.00 0.00 58 1019.0
20260503202509 10 157 8.0 0.0 0.00 0.00 0.00 58 1019.2
20260503202005 10 169 9.7 0.0 0.00 0.00 0.00 57 1019.2
20260503201938 10 156 8.0 16.1 0.00 0.00 0.00 57 1018.9
20260503201609 10 149 9.7 0.0 0.00 0.00 0.00 57 1019.3
20260503201519 10 175 9.7 0.0 0.00 0.00 0.00 58 1019.3
20260503201008 10 147 8.0 0.0 0.00 0.00 0.00 58 1019.5
20260503200937 10 149 9.7 12.9 0.00 0.00 0.00 58 1018.9
20260503200505 10 173 8.0 0.0 0.00 0.00 0.00 59 1019.1
20260503200115 10 150 6.4 0.0 0.00 0.00 0.00 59 1019.2
20260503200019 10 157 6.4 0.0 0.00 0.00 0.00 59 1019.2
20260503195937 10 155 8.0 12.9 0.00 0.00 0.00 59 1018.9
20260503195512 10 162 8.0 0.0 0.00 0.00 0.00 59 1019.1
20260503195005 11 150 11.3 0.0 0.00 0.00 0.00 58 1019.1
20260503194941 11 141 9.7 16.1 0.00 0.00 0.00 58 1018.9
20260503194620 10 141 11.3 0.0 0.00 0.00 0.00 58 1019.0
20260503194519 11 133 12.9 0.0 0.00 0.00 0.00 57 1019.1
20260503194008 11 137 12.9 0.0 0.00 0.00 0.00 58 1018.9
20260503193938 11 134 11.3 16.1 0.00 0.00 0.00 58 1018.8
20260503193505 11 147 11.3 0.0 0.00 0.00 0.00 58 1019.0
20260503193122 10 126 11.3 0.0 0.00 0.00 0.00 58 1019.2
20260503193017 11 123 11.3 0.0 0.00 0.00 0.00 58 1019.1
20260503192941 11 128 11.3 16.1 0.00 0.00 0.00 59 1018.8
20260503192508 11 128 9.7 0.0 0.00 0.00 0.00 58 1019.1
20260503192000 11 134 9.7 0.0 0.00 0.00 0.00 58 1019.1
20260503191522 11 136 11.3 0.0 0.00 0.00 0.00 57 1019.2
20260503191507 11 128 11.3 0.0 0.00 0.00 0.00 57 1019.2
20260503190956 12 138 11.3 0.0 0.00 0.00 0.00 55 1019.1
20260503190937 12 134 11.3 14.5 0.00 0.00 0.00 55 1018.8
20260503190511 12 134 11.3 0.0 0.00 0.00 0.00 54 1019.1
20260503190122 12 128 11.3 0.0 0.00 0.00 0.00 54 1019.0
20260503190025 12 124 11.3 0.0 0.00 0.00 0.00 54 1019.1
20260503185938 12 129 9.7 16.1 0.00 0.00 0.00 53 1018.8
20260503185538 12 131 12.9 0.0 0.00 0.00 0.00 53 1019.0
20260503185026 12 129 12.9 0.0 0.00 0.00 0.00 53 1019.1
20260503184937 12 124 11.3 19.3 0.00 0.00 0.00 53 1018.8
20260503184549 12 131 12.9 0.0 0.00 0.00 0.00 52 1019.2
20260503184523 12 137 12.9 0.0 0.00 0.00 0.00 52 1018.9
20260503184042 12 125 12.9 0.0 0.00 0.00 0.00 52 1018.8
20260503183937 12 129 12.9 19.3 0.00 0.00 0.00 52 1018.7
20260503183511 12 136 14.5 0.0 0.00 0.00 0.00 52 1018.7
20260503183117 12 124 11.3 0.0 0.00 0.00 0.00 53 1018.8
20260503183007 12 135 11.3 0.0 0.00 0.00 0.00 53 1018.9
20260503182937 12 135 14.5 19.3 0.00 0.00 0.00 53 1018.5
20260503182511 12 137 9.7 0.0 0.00 0.00 0.00 53 1018.8
20260503182009 13 126 9.7 0.0 0.00 0.00 0.00 53 1018.7
20260503181939 13 127 8.0 14.5 0.00 0.00 0.00 53 1018.6
20260503181636 12 123 11.3 0.0 0.00 0.00 0.00 51 1018.6
20260503181525 13 121 12.9 0.0 0.00 0.00 0.00 51 1018.7
20260503181024 13 123 12.9 0.0 0.00 0.00 0.00 50 1018.6
20260503180511 13 134 12.9 0.0 0.00 0.00 0.00 49 1018.4
20260503180050 12 130 11.3 0.0 0.00 0.00 0.00 49 1018.5
20260503180009 13 125 9.7 0.0 0.00 0.00 0.00 50 1018.5
20260503175938 13 128 12.9 16.1 0.00 0.00 0.00 50 1018.2
20260503175527 13 128 8.0 0.0 0.00 0.00 0.00 52 1018.4
20260503175023 13 131 8.0 0.0 0.00 0.00 0.00 52 1018.4
20260503174610 13 136 9.7 0.0 0.00 0.00 0.00 53 1018.5
20260503174510 13 132 9.7 0.0 0.00 0.00 0.00 53 1018.5
20260503174003 13 136 8.0 0.0 0.00 0.00 0.00 52 1018.4
20260503173938 13 138 9.7 12.9 0.00 0.00 0.00 52 1018.1
20260503173516 13 146 8.0 0.0 0.00 0.00 0.00 52 1018.4
20260503173116 13 149 8.0 0.0 0.00 0.00 0.00 52 1018.2
20260503173012 13 141 8.0 0.0 0.00 0.00 0.00 51 1018.3
20260503172938 13 142 8.0 12.9 0.00 0.00 0.00 52 1017.8
20260503172503 13 140 8.0 0.0 0.00 0.00 0.00 52 1018.3
20260503172013 13 135 8.0 0.0 0.00 0.00 0.00 52 1018.1
20260503171937 13 149 8.0 12.9 0.00 0.00 0.00 52 1017.9
20260503171523 13 147 6.4 0.0 0.00 0.00 0.00 50 1018.1
20260503171503 14 133 6.4 0.0 0.00 0.00 0.00 52 1018.0
20260503171013 14 132 4.8 0.0 0.00 0.00 0.00 51 1018.1
20260503170938 14 141 6.4 11.3 0.00 0.00 0.00 51 1017.5
20260503170513 14 126 6.4 0.0 0.00 0.00 0.00 49 1017.9
20260503160125 17 73 14.5 0.0 0.00 0.00 0.00 35 1017.4
20260503150938 17 59 16.1 22.5 0.00 0.00 0.00 35 1017.0
20260503150511 17 53 9.7 0.0 0.00 0.00 0.00 35 1017.2
20260503140107 17 65 16.1 0.0 0.00 0.00 0.00 33 1017.6
20260503131002 18 132 9.7 0.0 0.00 0.00 0.00 36 1017.7
20260503130938 18 57 9.7 29.0 0.00 0.00 0.00 35 1017.5
20260503130514 18 36 9.7 0.0 0.00 0.00 0.00 33 1017.7
20260503130135 17 313 8.0 0.0 0.00 0.00 0.00 32 1018.0
20260503110526 17 349 11.3 0.0 0.00 0.00 0.00 34 1018.7
20260503110106 17 268 9.7 0.0 0.00 0.00 0.00 41 1018.8
20260503100111 15 182 4.8 0.0 0.00 0.00 0.00 38 1018.8
20260503090513 15 13 6.4 0.0 0.00 0.00 0.00 40 1019.5
20260503081548 13 307 6.4 0.0 0.00 0.00 0.00 46 1019.7
20260503081509 14 309 6.4 0.0 0.00 0.00 0.00 49 1019.7
20260503081001 13 331 4.8 0.0 0.00 0.00 0.00 48 1019.7
20260503080939 13 340 4.8 12.9 0.00 0.00 0.00 48 1019.3
20260503080508 13 315 4.8 0.0 0.00 0.00 0.00 51 1019.7
20260503072939 13 208 1.6 8.0 0.00 0.00 0.00 50 1019.4
20260503072512 13 201 3.2 0.0 0.00 0.00 0.00 49 1019.5
20260503072029 13 287 3.2 0.0 0.00 0.00 0.00 49 1019.5
20260503071939 13 287 1.6 9.7 0.00 0.00 0.00 51 1019.3
20260503071608 12 327 4.8 0.0 0.00 0.00 0.00 50 1019.7
20260503071505 13 14 3.2 0.0 0.00 0.00 0.00 52 1019.5
20260503071013 13 334 6.4 0.0 0.00 0.00 0.00 53 1019.8
20260503070939 13 322 4.8 16.1 0.00 0.00 0.00 54 1019.4
20260503070512 13 325 9.7 0.0 0.00 0.00 0.00 52 1019.7
20260503070122 12 319 8.0 0.0 0.00 0.00 0.00 52 1019.8
20260503060124 10 309 4.8 0.0 0.00 0.00 0.00 71 1019.4
20260503055007 10 261 4.8 0.0 0.00 0.00 0.00 74 1019.2
20260503054939 10 260 6.4 9.7 0.00 0.00 0.00 75 1019.0
20260503054600 10 266 4.8 0.0 0.00 0.00 0.00 75 1019.3
20260503054503 10 286 4.8 0.0 0.00 0.00 0.00 75 1019.3
20260503054026 10 276 8.0 0.0 0.00 0.00 0.00 76 1019.4
20260503053940 10 262 4.8 12.9 0.00 0.00 0.00 77 1019.1
20260503053515 10 270 8.0 0.0 0.00 0.00 0.00 78 1019.4
20260503053106 10 267 8.0 0.0 0.00 0.00 0.00 78 1019.3
20260503053013 10 257 8.0 0.0 0.00 0.00 0.00 78 1019.2
20260503052939 10 268 8.0 12.9 0.00 0.00 0.00 78 1019.0
20260503052501 10 271 6.4 0.0 0.00 0.00 0.00 79 1019.2
20260503052013 10 296 4.8 0.0 0.00 0.00 0.00 82 1019.3
20260503051940 10 298 6.4 11.3 0.00 0.00 0.00 82 1018.9
20260503051607 9 281 3.2 0.0 0.00 0.00 0.00 83 1019.1
20260503051510 9 236 3.2 0.0 0.00 0.00 0.00 83 1019.1
20260503051023 9 234 3.2 0.0 0.00 0.00 0.00 85 1019.1
20260503050939 8 236 1.6 4.8 0.00 0.00 0.00 85 1019.0
20260503050512 8 244 3.2 0.0 0.00 0.00 0.00 86 1019.2
20260503050052 8 206 3.2 0.0 0.00 0.00 0.00 87 1019.2
20260503050005 8 222 1.6 0.0 0.00 0.00 0.00 87 1019.0
20260503045512 8 185 3.2 0.0 0.00 0.00 0.00 88 1019.1
20260503044959 8 184 3.2 0.0 0.00 0.00 0.00 89 1019.0
20260503044941 8 184 3.2 4.8 0.00 0.00 0.00 89 1018.7
20260503044544 7 165 1.6 0.0 0.00 0.00 0.00 89 1019.0
20260503044511 7 165 1.6 0.0 0.00 0.00 0.00 89 1019.0
20260503044006 7 159 0.0 0.0 0.00 0.00 0.00 90 1019.0
20260503043940 7 159 0.0 1.6 0.00 0.00 0.00 89 1018.7
20260503043510 7 159 0.0 0.0 0.00 0.00 0.00 89 1019.2
20260503043045 7 101 1.6 0.0 0.00 0.00 0.00 90 1019.1
20260503043001 7 105 3.2 0.0 0.00 0.00 0.00 90 1019.1
20260503042513 7 105 4.8 0.0 0.00 0.00 0.00 90 1019.0
20260503042001 6 98 4.8 0.0 0.00 0.00 0.00 90 1019.1
20260503041649 6 118 4.8 0.0 0.00 0.00 0.00 90 1019.0
20260503041541 6 117 4.8 0.0 0.00 0.00 0.00 90 1019.0
20260503041008 6 113 3.2 0.0 0.00 0.00 0.00 89 1019.0
20260503040506 6 122 3.2 0.0 0.00 0.00 0.00 89 1018.8
20260503040132 5 196 3.2 0.0 0.00 0.00 0.00 88 1018.9
20260503040040 5 196 3.2 0.0 0.00 0.00 0.00 88 1018.8
20260503035535 5 195 4.8 0.0 0.00 0.00 0.00 88 1018.7
20260503035003 5 182 4.8 0.0 0.00 0.00 0.00 88 1018.7
20260503034941 5 182 4.8 4.8 0.00 0.00 0.00 88 1018.3
20260503034611 5 182 4.8 0.0 0.00 0.00 0.00 88 1018.7
20260503034457 5 182 4.8 0.0 0.00 0.00 0.00 88 1018.7
20260503034015 5 183 4.8 0.0 0.00 0.00 0.00 88 1018.6
20260503033940 5 183 4.8 8.0 0.00 0.00 0.00 88 1018.3
20260503033504 5 189 4.8 0.0 0.00 0.00 0.00 88 1018.5
20260503033103 5 184 3.2 0.0 0.00 0.00 0.00 87 1018.5
20260503033016 5 184 3.2 0.0 0.00 0.00 0.00 87 1018.4
20260503032940 5 182 1.6 4.8 0.00 0.00 0.00 87 1018.2
20260503032507 5 182 3.2 0.0 0.00 0.00 0.00 87 1018.5
20260503032022 6 182 1.6 0.0 0.00 0.00 0.00 87 1018.4
20260503031940 6 116 0.0 4.8 0.00 0.00 0.00 88 1018.1
20260503031543 5 109 1.6 0.0 0.00 0.00 0.00 88 1018.4
20260503031514 6 109 1.6 0.0 0.00 0.00 0.00 87 1018.4
20260503031012 6 205 3.2 0.0 0.00 0.00 0.00 88 1018.4
20260503030531 6 212 3.2 0.0 0.00 0.00 0.00 87 1018.2
20260503030032 6 219 4.8 0.0 0.00 0.00 0.00 88 1018.2
20260503030015 6 221 4.8 0.0 0.00 0.00 0.00 88 1018.2
20260503025939 6 221 3.2 14.5 0.00 0.00 0.00 88 1018.0
20260503025513 6 232 6.4 0.0 0.00 0.00 0.00 88 1018.2
20260503024959 6 267 8.0 0.0 0.00 0.00 0.00 88 1018.3
20260503024940 6 273 8.0 14.5 0.00 0.00 0.00 88 1018.1
20260503024539 6 247 8.0 0.0 0.00 0.00 0.00 88 1018.3
20260503024511 6 248 9.7 0.0 0.00 0.00 0.00 88 1018.2
20260503024005 6 226 6.4 0.0 0.00 0.00 0.00 88 1018.1
20260503023940 6 221 9.7 12.9 0.00 0.00 0.00 88 1018.0
20260503023519 6 232 4.8 0.0 0.00 0.00 0.00 88 1018.4
20260503023046 6 238 6.4 0.0 0.00 0.00 0.00 88 1018.5
20260503023010 6 238 6.4 0.0 0.00 0.00 0.00 88 1018.4
20260503022940 6 234 4.8 9.7 0.00 0.00 0.00 88 1018.1
20260503022503 6 198 6.4 0.0 0.00 0.00 0.00 88 1018.4
20260503022010 6 225 4.8 0.0 0.00 0.00 0.00 88 1018.5
20260503021940 6 215 4.8 8.0 0.00 0.00 0.00 88 1018.2